Cloud_Cover
100 100 100 100 100 100 100 100 99 46 86 100 90 70 82 95 100 100 100 100 100 100 100 100 97 38 11 58 56 19 68 100 100 100 100 100 100 100
100 100 100 100 100 100 100 100 93 51 100 100 100 100 100 100 94 100 81 100 100 100 100 100 100 100 100 100 100 100 100 100 100 100 100 100 100 100
100 100 100 100 100 100 100 100 100 100 100 100 100 94 91 100 89 100 88 60 48 100 100 100 100 100 90 69 100 100 100 100 100 100 100 100 100 100
100 100 100 100 100 100 98 99 83 100 100 100 76 95 72 83 100 100 100 34 93 49 100 97 100 100 100 72 13 42 99 100 100 100 100 100 100 100
100 100 100 93 78 97 100 100 100 97 100 100 100 100 100 88 32 47 22 23 18 33 11 26 14 88 98 100 100 69 90 100 100 100 100 100 100 100
100 75 64 76 99 100 100 100 99 98 100 100 100 100 86 41 4 7 50 80 62 26 5 7 40 14 27 64 66 100 100 100 100 99 88 99 98 100
93 97 96 100 100 100 100 100 63 100 100 11 40 17 6 1 1 5 19 58 95 96 61 44 17 5 5 5 5 20 87 92 99 100 100 100 100 100
100 100 100 100 100 94 100 100 100 100 86 54 5 0 0 0 0 0 5 5 10 8 3 3 5 4 0 0 4 5 5 5 5 5 5 35 9 73
100 100 100 100 99 100 100 100 99 100 31 14 3 0 0 1 5 5 5 5 5 0 0 5 5 5 1 3 0 0 5 5 5 5 7 26 16 63
100 100 100 100 100 100 100 100 100 97 9 5 5 5 5 5 5 5 5 5 5 5 5 5 5 2 0 2 3 3 4 4 5 5 5 5 5 5
100 100 100 100 100 100 100 100 94 21 5 5 3 0 3 1 1 3 5 5 5 5 5 5 5 5 5 5 5 2 5 5 5 5 6 98 100 100
100 100 100 100 100 100 100 68 55 32 5 5 5 5 5 4 0 3 5 5 6 23 41 5 86 51 11 5 5 5 5 5 0 5 5 5 18 100
100 100 100 100 94 100 65 77 51 38 13 8 5 5 5 5 5 5 5 64 100 96 82 58 86 100 100 88 5 5 5 5 5 5 5 5 39 94
100 100 100 100 100 100 100 100 96 87 92 39 19 21 25 5 58 17 5 8 64 98 94 100 98 96 100 100 84 5 5 5 5 6 72 78 75 29
100 100 100 99 100 100 100 100 100 99 93 35 5 5 5 8 15 22 96 100 100 98 100 100 100 96 97 100 100 100 99 32 29 13 98 86 10 90
100 100 100 100 100 100 100 100 100 100 100 79 7 5 5 5 5 47 42 100 100 100 95 98 62 25 100 100 100 100 100 93 13 49 84 83 94 68
100 100 100 100 100 100 100 100 100 100 100 54 81 9 5 5 5 27 51 41 92 94 70 81 92 87 86 86 94 62 16 5 5 36 99 100 100 100
100 100 100 100 100 100 100 100 100 53 5 27 7 6 5 5 10 8 5 9 7 5 50 18 80 84 8 5 8 57 39 5 12 96 100 100 100 82
100 100 100 100 100 100 100 97 58 18 23 73 40 42 5 17 9 5 5 5 5 5 5 8 94 98 100 98 25 76 6 5 5 12 7 15 74 8
100 100 100 100 100 100 94 98 88 98 89 100 67 18 9 14 9 9 44 20 5 5 5 5 61 100 100 89 96 92 23 24 22 86 86 10 5 10
100 100 100 100 100 97 90 97 96 100 100 99 100 96 87 84 92 80 99 5 61 70 94 100 94 99 100 100 100 55 16 5 5 7 10 88 100 90
100 100 100 100 96 100 97 100 100 100 100 100 100 100 100 99 100 100 53 10 72 95 100 100 100 100 100 100 100 99 93 5 5 16 43 78 100 97
100 100 100 100 100 100 100 100 100 100 100 100 100 100 100 100 100 100 97 100 100 100 100 100 100 100 100 100 100 100 93 76 62 59 5 6 90 95